TimeCDT,TemperatureF,Dew PointF,Humidity,Sea Level PressureIn,VisibilityMPH,Wind Direction,Wind SpeedMPH,Gust SpeedMPH,PrecipitationIn,Events,Conditions,WindDirDegrees,DateUTC
12:53 AM,66.9,61.0,81,30.00,10.0,SSE,16.1,21.9,N/A,,Mostly Cloudy,160,2013-04-28 05:53:00
1:09 AM,66.2,60.8,83,30.01,10.0,South,16.1,-,N/A,Thunderstorm,Mostly Cloudy,170,2013-04-28 06:09:00
1:24 AM,66.2,62.6,88,29.99,10.0,South,16.1,-,N/A,,Mostly Cloudy,170,2013-04-28 06:24:00
1:39 AM,66.2,60.8,83,29.98,10.0,South,18.4,25.3,N/A,Thunderstorm,Mostly Cloudy,170,2013-04-28 06:39:00
1:53 AM,66.9,61.0,81,29.96,10.0,South,12.7,-,N/A,,Mostly Cloudy,180,2013-04-28 06:53:00
2:23 AM,66.2,60.8,83,29.97,10.0,South,12.7,-,0.00,Rain-Thunderstorm,Light Rain,180,2013-04-28 07:23:00
2:42 AM,62.6,59.0,88,30.04,1.8,West,15.0,24.2,0.08,Rain-Thunderstorm,Heavy Thunderstorms and Rain,260,2013-04-28 07:42:00
2:53 AM,62.1,59.0,90,30.00,2.5,Variable,6.9,17.3,0.27,Rain-Thunderstorm,Heavy Thunderstorms and Rain,0,2013-04-28 07:53:00
3:15 AM,60.8,59.0,94,29.98,3.0,SSE,5.8,-,0.12,Rain-Thunderstorm,Heavy Thunderstorms and Rain,160,2013-04-28 08:15:00
3:27 AM,60.8,57.2,88,29.99,2.0,South,12.7,-,0.16,Rain-Thunderstorm,Thunderstorms and Rain,170,2013-04-28 08:27:00
3:37 AM,60.8,59.0,94,29.94,7.0,SSE,17.3,-,0.18,Rain-Thunderstorm,Light Rain,150,2013-04-28 08:37:00
3:53 AM,62.1,57.9,86,29.92,10.0,SW,5.8,-,0.19,Rain-Thunderstorm,Light Rain,220,2013-04-28 08:53:00
4:00 AM,62.6,57.2,82,29.95,10.0,WSW,9.2,-,0.00,,Scattered Clouds,250,2013-04-28 09:00:00
4:53 AM,61.0,59.0,93,29.95,10.0,South,5.8,-,0.00,,Overcast,190,2013-04-28 09:53:00
5:05 AM,60.8,60.8,100,29.97,10.0,SSE,5.8,-,0.00,Rain-Thunderstorm,Light Rain,160,2013-04-28 10:05:00
5:26 AM,60.8,60.8,100,29.96,10.0,SSE,5.8,-,0.00,Thunderstorm,Thunderstorm,150,2013-04-28 10:26:00
5:38 AM,62.6,60.8,94,29.97,10.0,South,8.1,-,0.00,,Overcast,180,2013-04-28 10:38:00
5:53 AM,63.0,61.0,93,29.95,10.0,SSE,6.9,-,0.00,Rain,Light Rain,160,2013-04-28 10:53:00
6:12 AM,62.6,60.8,94,29.96,10.0,SSE,6.9,-,0.00,Rain,Light Rain,160,2013-04-28 11:12:00
6:39 AM,62.6,60.8,94,29.97,6.0,SE,9.2,-,0.00,,Overcast,140,2013-04-28 11:39:00
6:53 AM,63.0,61.0,93,29.96,7.0,SSE,8.1,-,0.00,,Overcast,150,2013-04-28 11:53:00
7:07 AM,64.4,62.6,94,29.98,7.0,South,8.1,-,N/A,Thunderstorm,Thunderstorm,190,2013-04-28 12:07:00
7:35 AM,66.2,62.6,88,29.98,5.0,SSW,10.4,-,N/A,,Overcast,200,2013-04-28 12:35:00
7:53 AM,66.2,64.4,94,29.99,6.0,SSW,8.1,-,N/A,,Mostly Cloudy,210,2013-04-28 12:53:00
8:53 AM,68.0,64.0,87,29.97,7.0,SSW,8.1,-,N/A,,Overcast,200,2013-04-28 13:53:00
9:23 AM,68.0,64.4,88,29.97,7.0,SSW,9.2,-,N/A,,Overcast,200,2013-04-28 14:23:00
9:41 AM,68.0,64.4,88,29.98,6.0,South,11.5,-,0.00,Rain-Thunderstorm,Light Thunderstorms and Rain,190,2013-04-28 14:41:00
9:53 AM,68.0,64.0,87,29.97,3.0,SSW,10.4,-,0.00,Rain-Thunderstorm,Thunderstorms and Rain,200,2013-04-28 14:53:00
9:58 AM,66.2,64.4,94,29.99,1.0,SSW,13.8,20.7,0.03,Rain-Thunderstorm,Heavy Thunderstorms and Rain,200,2013-04-28 14:58:00
10:20 AM,66.2,64.4,94,29.97,3.0,South,15.0,19.6,0.19,Rain-Thunderstorm,Light Thunderstorms and Rain,180,2013-04-28 15:20:00
10:53 AM,66.0,64.0,93,29.99,5.0,West,6.9,-,0.23,Rain-Thunderstorm,Light Thunderstorms and Rain,260,2013-04-28 15:53:00
11:38 AM,64.4,62.6,94,30.02,0.8,West,6.9,-,0.02,Rain-Thunderstorm,Heavy Thunderstorms and Rain,270,2013-04-28 16:38:00
11:53 AM,62.1,60.1,93,29.99,0.8,South,13.8,28.8,0.63,Rain-Thunderstorm,Heavy Thunderstorms and Rain,180,2013-04-28 16:53:00
11:56 AM,62.6,57.2,82,29.99,3.0,South,11.5,28.8,0.03,Rain-Thunderstorm,Heavy Thunderstorms and Rain,180,2013-04-28 16:56:00
12:07 PM,62.6,59.0,88,30.00,5.0,SW,9.2,-,0.04,Rain-Thunderstorm,Light Thunderstorms and Rain,230,2013-04-28 17:07:00
12:53 PM,63.0,59.0,87,29.96,5.0,South,15.0,-,0.18,Rain-Thunderstorm,Thunderstorms and Rain,170,2013-04-28 17:53:00
1:53 PM,62.1,60.1,93,29.96,10.0,West,5.8,-,0.15,Rain,Light Rain,270,2013-04-28 18:53:00
2:53 PM,63.0,61.0,93,29.97,10.0,SW,9.2,-,0.00,,Overcast,230,2013-04-28 19:53:00
3:53 PM,62.6,59.0,88,29.98,10.0,SSW,8.1,-,N/A,,Overcast,200,2013-04-28 20:53:00
4:16 PM,62.6,59.0,88,29.97,10.0,SSW,6.9,-,N/A,,Overcast,210,2013-04-28 21:16:00
4:27 PM,62.6,59.0,88,29.96,10.0,SSW,8.1,-,N/A,,Overcast,210,2013-04-28 21:27:00
4:53 PM,62.1,59.0,90,29.94,10.0,WSW,6.9,-,N/A,,Overcast,240,2013-04-28 21:53:00
5:09 PM,62.6,59.0,88,29.96,10.0,WSW,8.1,-,N/A,,Overcast,240,2013-04-28 22:09:00
5:35 PM,62.6,59.0,88,29.96,10.0,SW,8.1,-,N/A,,Overcast,230,2013-04-28 22:35:00
5:53 PM,62.1,59.0,90,29.95,10.0,SW,6.9,-,N/A,,Overcast,230,2013-04-28 22:53:00
6:11 PM,62.6,60.8,94,29.96,10.0,WSW,5.8,-,N/A,,Overcast,240,2013-04-28 23:11:00
6:53 PM,62.6,59.0,88,29.97,10.0,South,5.8,-,N/A,,Overcast,180,2013-04-28 23:53:00
7:53 PM,61.0,60.1,97,29.96,10.0,South,4.6,-,N/A,,Overcast,170,2013-04-29 00:53:00
8:21 PM,60.8,59.0,94,29.97,10.0,South,3.5,-,N/A,,Overcast,180,2013-04-29 01:21:00
8:53 PM,61.0,59.0,93,29.97,10.0,South,4.6,-,N/A,,Overcast,180,2013-04-29 01:53:00
9:53 PM,61.0,57.9,90,29.97,10.0,South,4.6,-,N/A,,Overcast,170,2013-04-29 02:53:00
10:10 PM,60.8,57.2,88,29.98,10.0,Calm,Calm,-,N/A,,Overcast,0,2013-04-29 03:10:00
10:53 PM,60.1,57.9,93,29.97,10.0,Calm,Calm,-,N/A,,Overcast,0,2013-04-29 03:53:00
11:53 PM,60.1,57.9,93,29.99,10.0,South,3.5,-,N/A,,Overcast,180,2013-04-29 04:53:00